Hourly Data Report for June 21, 2004

TORONTO CITY
ONTARIO

43°40'00.000" N
79°24'00.000" W
112.50 m
6158355
71508
XTO

Download Data

Hourly Data (June 2004)
Hourly Data Report for June 21, 2004
TIME
LST
Temp Definition
°C
Dew Point Definition
°C
Rel Hum Definition
%
Precip. Amount Definition
mm

Wind Dir Definition
10's deg

Wind Spd Definition
km/h
Visibility Definition
km
Stn Press Definition
kPa
Hmdx Definition


Wind Chill Definition


Weather Definition


00:00 16.2 6.6 53   LegendMM LegendMM LegendMM 100.09     LegendNANA
01:00 14.4 6.8 60   LegendMM LegendMM LegendMM 100.08     LegendNANA
02:00 15.7 7.9 60   LegendMM LegendMM LegendMM 100.10     LegendNANA
03:00 15.1 8.3 64   LegendMM LegendMM LegendMM 100.08     LegendNANA
04:00 13.4 8.5 72   LegendMM LegendMM LegendMM 100.03     LegendNANA
05:00 12.6 9.4 81   LegendMM LegendMM LegendMM 100.05     LegendNANA
06:00 14.6 10.9 78   LegendMM LegendMM LegendMM 100.08     LegendNANA
07:00 16.4 11.7 74   LegendMM LegendMM LegendMM 100.04     LegendNANA
08:00 17.8 13.1 74   LegendMM LegendMM LegendMM 100.02     LegendNANA
09:00 19.2 13.1 68   LegendMM LegendMM LegendMM 99.94     LegendNANA
10:00 20.8 13.8 64   LegendMM LegendMM LegendMM 99.88     LegendNANA
11:00 21.6 13.5 60   LegendMM LegendMM LegendMM 99.82 25   LegendNANA
12:00 21.7 12.6 56   LegendMM LegendMM LegendMM 99.81     LegendNANA
13:00 21.9 13.1 57   LegendMM LegendMM LegendMM 99.72 25   LegendNANA
14:00 21.4 12.3 56   LegendMM LegendMM LegendMM 99.66     LegendNANA
15:00 21.1 12.9 59   LegendMM LegendMM LegendMM 99.62     LegendNANA
16:00 21.5 13.5 60   LegendMM LegendMM LegendMM 99.56 25   LegendNANA
17:00 21.3 13.1 60   LegendMM LegendMM LegendMM 99.52     LegendNANA
18:00 19.8 13.7 68   LegendMM LegendMM LegendMM 99.53     LegendNANA
19:00 19.5 14.3 72   LegendMM LegendMM LegendMM 99.53     LegendNANA
20:00 18.1 15.3 84   LegendMM LegendMM LegendMM 99.59     LegendNANA
21:00 16.4 15.6 95   LegendMM LegendMM LegendMM 99.54     LegendNANA
22:00 16.2 15.7 97   LegendMM LegendMM LegendMM 99.53     LegendNANA
23:00 16.3 15.8 97   LegendMM LegendMM LegendMM 99.48     LegendNANA

Notes on Data Quality.

Legend

  • E = Estimated
  • M = Missing
  • NA = Not Available*
  • [empty] = Indicates an unobserved value
Date modified: